Home   Weather   Schwäbisch Gmünd   Past weeks

Flag for Germany Past Weather in Schwäbisch Gmünd, Baden-Württemberg, Germany — Yesterday and Last 2 Weeks

Now
39 °F

Light rain. Partly sunny.


Feels Like: 32 °F
Forecast: 37 / 46 °F
Wind: 10 mph from North

Location: Stuttgart-Echterdingen

Current Time: Apr 27, 2017 at 11:13:40 am

Latest Report: Apr 27, 2017 at 10:50 am


Visibility: 5 mi

Pressure: 29.98 "Hg

Humidity: 87%

Dew Point: 36 °F

Location of Schwäbisch GmündLocation

Past Weather in Schwäbisch Gmünd — Graph

°F

Schwäbisch Gmünd Temperature Yesterday

Maximum temperature yesterday: 43 °F (at 2:20 pm)
Minimum temperature yesterday: 36 °F (at 4:50 am)
Average temperature yesterday: 39 °F

High & Low Weather Summary for the Past Weeks

 TemperatureHumidityPressure
High66 °F (Apr 12, 3:20 pm)100% (Apr 18, 9:20 pm)30.54 "Hg (Apr 18, 9:20 pm)
Low27 °F (Apr 20, 5:20 am)27% (Apr 21, 4:50 pm)29.74 "Hg (Apr 25, 2:20 am)
Average45 °F69%30.10 "Hg
* Reported Apr 12 9:20 am — Apr 27 9:50 am, Schwäbisch Gmünd, Weather by CustomWeather, © 2017

Note: Actual official high and low records may vary slightly from our data, if they occured in-between our weather recording intervals... More about our weather records

Advertising

Schwäbisch Gmünd Weather History for the Previous 24 Hours

Scroll right to see more
 ConditionsComfort  
Time TempWeatherWind HumidityBarometerVisibility
9:50 am
Thu, Apr 27
37 °FLight rain. Partly sunny.5 mph93%29.95 "Hg5 mi
9:20 am37 °FLight rain. Partly sunny.7 mph93%29.95 "Hg4 mi
8:50 am37 °FLight rain. Partly sunny.6 mph93%29.95 "Hg4 mi
8:20 am37 °FLight rain. Partly sunny.8 mph93%29.95 "Hg4 mi
7:50 am37 °FLight rain. Partly sunny.6 mph93%29.92 "Hg3 mi
6:50 am36 °FLight rain. Partly sunny.7 mph100%29.92 "Hg3 mi
5:50 am37 °FRain. Passing clouds.5 mph93%29.89 "Hg4 mi
4:50 am37 °FLight rain. Passing clouds.7 mph93%29.89 "Hg4 mi
3:50 am37 °FRain. Partly cloudy.7 mph93%29.89 "Hg4 mi
3:20 am39 °FLight rain. Partly cloudy.5 mph93%29.89 "Hg4 mi
2:50 am37 °FLight rain. Partly cloudy.9 mph93%29.89 "Hg4 mi
2:20 am39 °FLight rain. Partly cloudy.9 mph87%29.89 "Hg4 mi
1:50 am39 °FLight rain. Partly cloudy.9 mph93%29.89 "Hg4 mi
12:50 am39 °FLight rain. Partly cloudy.9 mph93%29.89 "Hg4 mi
11:50 pm
Wed, Apr 26
41 °FLight rain. Partly cloudy.5 mph93%29.89 "Hg5 mi
11:20 pm41 °FLight rain. Partly cloudy.3 mph87%29.89 "HgN/A
10:50 pm41 °FLight rain. Partly cloudy.2 mph87%29.89 "HgN/A
10:20 pm41 °FLight rain. Partly cloudy.3 mph87%29.89 "HgN/A
9:50 pm41 °FLight rain. Partly cloudy.1 mph87%29.89 "HgN/A
8:50 pm41 °FPassing clouds.1 mph87%29.86 "HgN/A
8:20 pm41 °FPartly sunny.2 mph87%29.86 "HgN/A
7:50 pm41 °FPartly sunny.2 mph87%29.86 "HgN/A
7:20 pm41 °FLight rain. Broken clouds.1 mph87%29.86 "HgN/A
6:50 pm41 °FLight rain. Broken clouds.5 mph87%29.86 "HgN/A
6:20 pm41 °FLight rain. Partly sunny.6 mph87%29.86 "HgN/A
5:50 pm43 °FLight rain. Broken clouds.10 mph81%29.86 "HgN/A
5:20 pm43 °FLight rain. Partly sunny.9 mph81%29.86 "HgN/A
4:50 pm43 °FLight rain. Broken clouds.5 mph81%29.83 "HgN/A
4:20 pm43 °FLight rain. Broken clouds.3 mph81%29.86 "HgN/A
3:50 pm43 °FLight rain. Broken clouds.5 mph81%29.86 "HgN/A
3:20 pm43 °FLight rain. Broken clouds.3 mph81%29.83 "HgN/A
2:50 pm43 °FLight rain. Broken clouds.2 mph81%29.83 "HgN/A
2:20 pm43 °FLight rain. Broken clouds.3 mph81%29.83 "HgN/A
1:50 pm41 °FLight rain. Partly sunny.2 mph87%29.83 "HgN/A
1:20 pm41 °FLight rain. Partly sunny.3 mph87%29.83 "HgN/A
12:50 pm41 °FLight rain. Partly sunny.5 mph87%29.83 "HgN/A
11:50 am39 °FLight rain. Partly sunny.5 mph93%29.83 "HgN/A
11:20 am39 °FLight rain. Partly sunny.7 mph87%29.83 "HgN/A
Weather by CustomWeather, © 2017

See weather overviewHow to use our weather pages